Aeroporto :
LOGIN :

Iscrizione | Disclaimer

   EN    FR    IT 

 










Sommario :    VFR   VFR Marginale   IFR   IFR Intensivo   IFR Molto Intensivo
Visibilità : 
Base nubi : 
>= 8 km
>= 3000ft
5 / 8 km
1000 / 3000 ft
1500m / 5 km
500 / 1000 ft
800 / 1500m
200 / 500 ft
< 800m
< 200 ft
Simboli :   Temporali  Nebbia  Neve Forte  Precipitazioni Forti  Vento > 20 kt
SIGMETs :   Varie  Temporali  Ghiacco  Turbolenza  Onda orograficha  Ceneri Vulcaniche






- Altitudine del aeroporto : 364 ft
- Codice IATA : FRA


EDDF - Frankfurt Int.

ULTIMO METAR :
  • 131650Z VRB03KT CAVOK 24/09 Q1025 NOSIG

METARs OBSOLETI :
  • 131620Z 01005KT 290V050 CAVOK 24/10 Q1025 NOSIG
  • 131550Z 35003KT 270V040 CAVOK 24/11 Q1025 NOSIG
  • 131520Z VRB04KT CAVOK 24/10 Q1025 NOSIG
  • 131450Z VRB05KT CAVOK 24/11 Q1026 NOSIG
  • 131420Z VRB07KT CAVOK 23/10 Q1026 NOSIG

TAF TAF EDDF
Valido dal 13 a 12 ore il 14 a 18 ore UTC


131100Z 1312/1418 01006KT 9999 FEW040
BECMG 1407/1410 09005KT



MetMap, La meteo Aeronautica in un colpo d'occhio ! - Copyright ORBIFLY Dicembre 2007 - Disclaimer

ORBIFLY MET'MAP TEAM :

Programmazione e sviluppo : Alexandra Zaïnal
Concezione : Baudouin d'Aumeries
Aiuto per la programmazione : Marc-Olivier Méhu
Supporto tecnico e logistico : Manuel Goepfert
Aiuto per la traduzione : Arnaldo La Scala

Contatto : metmap@orbifly.com




FONTI E CREDITI :

   NOAA